FW8607 Weather Reports


time (UTC)temp
C
wind
direction
speed
KPH
gust
KPH
rain 1hr
cm
rain 24hr
cm
rain mn
cm
humidity
%
barometer
mb
20260904133018 16 68 3.2 9.7 0.00 0.00 0.00 90 1012.4
20260904130018 16 68 1.6 8.0 0.00 0.00 0.00 90 1012.2
20260904123018 16 45 1.6 6.4 0.00 0.00 0.00 90 1012.2
20260904120018 16 0.0 6.4 0.00 0.00 0.00 90 1012.0
20260904113018 16 0.0 0.0 0.00 0.00 0.00 91 1012.4
20260904110018 16 90 1.6 4.8 0.00 0.00 0.00 91 1012.3
20260904103017 16 0.0 4.8 0.00 0.00 0.00 92 1012.4
20260904100017 16 0.0 6.4 0.00 0.00 0.00 92 1012.2
20260904093017 16 0.0 4.8 0.00 0.00 0.00 91 1012.4
20260904090039 16 0.0 4.8 0.00 0.00 0.00 91 1012.2
20260904083019 16 158 1.6 6.4 0.00 0.00 0.00 91 1012.5
20260904080019 16 135 1.6 6.4 0.00 0.00 0.00 91 1012.7
20260904073020 16 0.0 4.8 0.00 0.00 0.00 90 1012.9
20260904070019 16 0.0 0.0 0.00 0.00 0.00 90 1012.8
20260904063039 16 0.0 0.0 0.00 0.00 0.00 89 1012.6
20260904060019 16 0.0 0.0 0.00 0.00 0.00 89 1012.5
20260904053019 17 0.0 3.2 0.00 0.00 0.00 89 1012.3
20260904050019 17 0.0 0.0 0.00 0.00 0.00 88 1012.4
20260904043019 17 248 1.6 4.8 0.00 0.00 0.00 87 1012.1
20260904040039 17 248 1.6 8.0 0.00 0.00 0.00 86 1012.0
20260904033019 18 248 6.4 11.3 0.00 0.00 0.00 84 1011.7
20260904030019 18 248 6.4 14.5 0.00 0.00 0.00 82 1011.5
20260904023019 19 248 8.0 14.5 0.00 0.00 0.00 80 1011.5
20260904020019 20 248 9.7 16.1 0.00 0.00 0.00 76 1011.4
20260904013019 21 248 12.9 22.5 0.00 0.00 0.00 74 1011.5
20260904010019 22 248 12.9 27.4 0.00 0.00 0.00 70 1011.6
20260904003018 23 248 14.5 25.7 0.00 0.00 0.00 67 1011.6
20260904000018 23 248 16.1 27.4 0.00 0.00 0.00 61 1011.7
20260903233018 23 248 16.1 29.0 0.00 0.00 0.00 59 1011.7
20260903230038 25 248 16.1 29.0 0.00 0.00 0.00 56 1012.0
20260903223018 25 248 16.1 30.6 0.00 0.00 0.00 59 1012.3
20260903220018 25 248 19.3 33.8 0.00 0.00 0.00 58 1012.5
20260903213018 25 248 19.3 30.6 0.00 0.00 0.00 59 1012.5
20260903210018 25 248 17.7 32.2 0.00 0.00 0.00 59 1012.5
20260903203018 25 248 17.7 33.8 0.00 0.00 0.00 57 1012.5
20260903200018 26 248 16.1 29.0 0.00 0.00 0.00 53 1012.8
20260903193018 27 248 12.9 29.0 0.00 0.00 0.00 50 1013.0
20260903190038 26 270 11.3 20.9 0.00 0.00 0.00 41 1013.4
20260903183017 26 248 8.0 19.3 0.00 0.00 0.00 41 1014.1
20260903180019 25 270 9.7 20.9 0.00 0.00 0.00 48 1014.2
20260903173020 23 270 6.4 17.7 0.00 0.00 0.00 56 1014.3
20260903170020 22 270 6.4 14.5 0.00 0.00 0.00 56 1014.3
20260903163019 21 248 1.6 12.9 0.00 0.00 0.00 60 1014.2
20260903160039 20 90 3.2 11.3 0.00 0.00 0.00 55 1014.3
20260903153019 18 90 1.6 6.4 0.00 0.00 0.00 57 1014.2
20260903150019 17 113 4.8 9.7 0.00 0.00 0.00 65 1014.1
20260903143019 14 90 1.6 9.7 0.00 0.00 0.00 78 1013.9
20260903140019 13 135 6.4 11.3 0.00 0.00 0.00 79 1013.8